Starlink 32902

operational
NORAD ID: 62898 Int'l Des: 2025-024 Owner: SPXS Country: US Constellation: starlink
LEOCIRCULAR

关于 Starlink 32902

正在加载描述...

实时位置

正在加载3D地球...

即将过境

高度历史

Altitude vs Time

uPlot chart will show altitude changes over time

两行轨道根数

1 62898U 25024V 26036.67066233 .00036847 00000-0 13400-2 0 9994
2 62898 43.0024 145.7895 0002284 282.1017 77.9578 15.27623307 57375
Epoch: Feb 5, 2026 • Age: 15 hours

当前状态

高度 494.0 km
速度 7.62 km/s
星下点 -41.68°S, 177.79°W
发射日期 Feb 4, 2025
运行时间 1 years
类型 internet

技术详情

分类 Payload
质量 730.00 kg
干质量 700.00 kg
总质量 730.00 kg
长度 0.30 m
直径 4.10 m
跨度 29.00 m
形状 Box + pan
制造商 SPXS
平台类型 Starlink V2M
阶段状态 In Orbit
所有者/国家 SPXS/US

大型星座

Loading constellations...